Regional Weather Roundup
Issued by NWS

Home | Current Version | Previous Version | Text Only | Print | Product List | Glossary Off
Versions: 1 2 3 4 5 6 7 8 9 10 11 12 13 14 15 16 17 18 19 20 21 22 23 24 25 26 27 28 29 30 31 32 33 34 35 36 37 38 39 40 41 42 43 44 45 46 47 48 49 50

510
ASUS43 KBIS 301810
RWRND

NORTH DAKOTA REGIONAL WEATHER ROUNDUP
NATIONAL WEATHER SERVICE BISMARCK ND
100 PM CDT SUN APR 30 2017

NOTE: "FAIR" INDICATES FEW OR NO CLOUDS BELOW 12,000 FEET WITH NO
SIGNIFICANT WEATHER AND/OR OBSTRUCTIONS TO VISIBILITY.


NDZ001>003-009>011-017-301900-
NORTHWEST NORTH DAKOTA

CITY           SKY/WX    TMP DP  RH WIND       PRES   REMARKS
WILLISTON      FAIR      65  19  17 SW14G24   29.92F
6HR MIN TEMP:  31; 6HR MAX TEMP:  65;

MINOT          FAIR      65  20  17 VRB3      29.94F
MINOT AFB      SUNNY     65  23  20 SW6       29.93F
$$

NDZ018>021-031>035-040>046-301900-
SOUTHWEST NORTH DAKOTA

CITY           SKY/WX    TMP DP  RH WIND       PRES   REMARKS
BISMARCK       FAIR      61  25  25 SE10G17   30.00F
6HR MIN TEMP:  32; 6HR MAX TEMP:  62;

DICKINSON      FAIR      59  16  18 E9        29.95S
GARRISON         N/A     59  18  20 MISG      29.96F
6HR MIN TEMP:  33; 6HR MAX TEMP:  61;

HETTINGER ARPT SUNNY     59  20  22 VRB3      29.99S
$$

NDZ004>008-012>016-024-026-027-054-301900-
NORTHEAST NORTH DAKOTA

CITY           SKY/WX    TMP DP  RH WIND       PRES   REMARKS
GRAND FORKS    MOSUNNY   61  26  26 E9        30.04F
GRND FRKS AFB  SUNNY     58  26  29 E9        30.04F
DEVILS LAKE    FAIR      58  24  27 SE10      30.03F
$$

NDZ022-023-025-028>030-036>039-047>053-301900-
SOUTHEAST NORTH DAKOTA

CITY           SKY/WX    TMP DP  RH WIND       PRES   REMARKS
FARGO          MOSUNNY   59  14  17 E16       30.00F
6HR MIN TEMP:  34; 6HR MAX TEMP:  60;

JAMESTOWN      FAIR      58  25  28 E14       29.99F
$$





USA.gov is the U.S. government's official web portal to all federal, state and local government web resources and services.